[[{"header":{"parameterUnit":"m.s-1","parameterCategory":1,"la1":30.2991,"la2":30.254,"lo1":-89.0895,"lo2":-89.0444,"dy":0.0017,"dx":0.0017,"nx":28,"ny":28,"refTime":"2025-08-15T21:00:00:Z","depth":0,"parameterNumber":2,"parameterNumberName":"U-component_of_WINDS"},"data":[0,0,0,0,0,0,0,0,0,0,0,0,0,0,0,0,0,0,0,0,0,0,0,0,0,0,0,0,0,0,0,0,0,0,0,0,0,0,0,0,0,0,0,0,0,0,0,0,0,0,0,0,0,0,0,0,0,0,0.6296,0.6297,0,0.6348,0.6349,0.6349,0.6319,0.6317,0.6316,0.6314,0.6371,0.6374,0.6377,0,0,0,0,0,0,0,0,0,0,0,0,0,0.6174,0.6177,0.6296,0.6297,0.6298,0.6348,0.6349,0.635,0.6319,0.6317,0.6315,0.6314,0.637,0.6373,0.6377,0,0,0,0,0,0,0,0,0,0,0,0,0,0.6227,0.6177,0.6296,0.6288,0.6288,0.6348,0.6349,0.635,0.6319,0.6317,0.6315,0.6313,0.6369,0.6373,0.6377,0.6449,0,0,0.6391,0.6393,0,0,0,0,0,0,0,0,0.6224,0.6231,0.6289,0.6289,0.6289,0.6325,0.6327,0.6383,0.632,0.6308,0.6314,0.6312,0.6358,0.6363,0.6377,0.6452,0.6454,0.6391,0.6394,0.6396,0.6397,0,0,0,0,0,0,0,0.622,0.6229,0.6317,0.629,0.629,0.6283,0.6288,0.6337,0.6345,0.6309,0.6306,0.6313,0.6357,0.6373,0.6379,0.6455,0.6391,0.6395,0.6397,0.6399,0.6591,0.6594,0,0,0,0,0,0,0.6217,0.6226,0.6315,0.6319,0.625,0.6287,0.6293,0.6316,0.6344,0.6346,0.6315,0.6311,0.6367,0.6374,0.638,0.6467,0.6395,0.64,0.6402,0.6589,0.6592,0.6594,0,0,0,0,0,0,0.6214,0.6225,0.6313,0.6272,0.6283,0.6292,0.6317,0.6318,0.6334,0.6349,0.635,0.633,0.6366,0.6374,0.6432,0.6468,0.6402,0.6405,0.6586,0.659,0.6593,0.664,0,0,0,0,0,0,0.6211,0.6224,0.6251,0.6273,0.6285,0.6363,0.632,0.632,0.6341,0.6337,0.6363,0.6365,0.6364,0.6426,0.6436,0.6473,0.6409,0.6583,0.6587,0.6592,0.6635,0.6645,0.6653,0,0,0,0,0,0.6207,0.6262,0.6252,0.6263,0.6318,0.6365,0.6372,0.6369,0.6344,0.6371,0.6381,0.6364,0.6462,0.6432,0.6444,0.6482,0.658,0.6586,0.6591,0.6631,0.6643,0.6653,0,0,0,0,0,0,0.6246,0.6265,0.6254,0.6318,0.634,0.636,0.6394,0.6382,0.6412,0.6407,0.6403,0.641,0.647,0.6482,0.6447,0.6553,0.6518,0.6526,0.6544,0.6555,0.6563,0.656,0.6412,0,0,0,0,0,0.6262,0.6297,0.6313,0.6368,0.6379,0.6385,0.6406,0.6401,0.6424,0.6434,0.6448,0.6472,0.6508,0.6532,0.6566,0.6636,0.6642,0.6668,0.6677,0.6685,0.6692,0.6731,0.6743,0.6613,0.6613,0.6613,0,0,0.6296,0.631,0.6333,0.6376,0.6393,0.6431,0.6393,0.6435,0.6464,0.6441,0.6496,0.6507,0.6533,0.6598,0.6627,0.661,0.6729,0.6692,0.6697,0.6701,0.6738,0.675,0.6761,0.6617,0.6616,0.6615,0,0,0.6377,0.6391,0.6439,0.6456,0.6481,0.6484,0.6496,0.6517,0.6524,0.6579,0.6562,0.6597,0.6659,0.6679,0.6697,0.6785,0.6772,0.6797,0.6843,0.6881,0.6892,0.6901,0.6933,0.6945,0.6804,0.6804,0.6804,0,0.6416,0.6471,0.6465,0.6509,0.6529,0.6508,0.6557,0.6574,0.661,0.6625,0.6604,0.6682,0.6698,0.6768,0.6789,0.6804,0.6818,0.6794,0.689,0.6899,0.6908,0.6939,0.6951,0.6807,0.6806,0.6806,0.6806,0,0.6519,0.6558,0.6594,0.6627,0.6651,0.6697,0.6699,0.6724,0.6718,0.6724,0.6781,0.68,0.6837,0.6853,0.6848,0.6922,0.6911,0.689,0.6855,0.6923,0.6952,0.6964,0.6811,0.681,0.6809,0.6808,0,0,0.6627,0.6656,0.6669,0.6685,0.6711,0.6741,0.6787,0.6823,0.6845,0.687,0.6909,0.6962,0.6943,0.6964,0.6961,0.6994,0.7064,0.697,0.697,0.6987,0.7148,0.7163,0.7177,0.7054,0.7056,0.7058,0.7146,0,0.671,0.6788,0.6784,0.6858,0.6895,0.6876,0.6916,0.6937,0.6943,0.6976,0.6984,0.7022,0.6994,0.7007,0.7038,0.7048,0.7096,0.7042,0.7092,0.7093,0.7086,0.7192,0.7209,0.729,0.7157,0.7159,0.716,0,0.6818,0.6845,0.6923,0.6944,0.6959,0.6995,0.7028,0.7059,0.7083,0.7085,0.7108,0.7099,0.7147,0.7109,0.7174,0.7138,0.7158,0.7166,0.7169,0.7174,0.7132,0.7201,0.7316,0.7328,0.7178,0.7176,0.7175,0,0.689,0.6947,0.7,0.7014,0.7039,0.7065,0.7077,0.7098,0.712,0.7149,0.7164,0.7198,0.7217,0.7245,0.7246,0.7218,0.7312,0.7274,0.7317,0.7317,0.7338,0.7337,0.7459,0.735,0.735,0.7349,0.7349,0,0.6984,0.7032,0.7033,0.7066,0.712,0.7115,0.7169,0.7179,0.7198,0.7234,0.7219,0.7253,0.7252,0.7287,0.7288,0.7343,0.7351,0.7355,0.7355,0.7357,0.7357,0.7371,0.7366,0.7353,0.7352,0.7351,0.7351,0,0.7074,0.7076,0.7133,0.7153,0.7159,0.7198,0.7215,0.7247,0.7252,0.7297,0.7308,0.7316,0.7356,0.736,0.7406,0.7407,0.7473,0.7467,0.7465,0.7464,0.7507,0.7503,0.7643,0.7661,0.7539,0.7541,0.7542,0,0.7134,0.717,0.7193,0.7216,0.7229,0.7265,0.7287,0.7284,0.7308,0.7338,0.7367,0.7405,0.7436,0.7501,0.7512,0.7548,0.7542,0.7589,0.7548,0.7549,0.7544,0.7542,0.7546,0.7597,0.7598,0.76,0.76,0,0.7241,0.724,0.7272,0.7305,0.7331,0.7357,0.7381,0.74,0.74,0.7428,0.7468,0.7492,0.7539,0.7578,0.7613,0.7626,0.7614,0.7613,0.7625,0.7628,0.7626,0.7628,0.7488,0.761,0.7609,0.7608,0.7608,0.7608,0.7318,0.735,0.7371,0.7407,0.7425,0.7448,0.7479,0.7488,0.7521,0.7559,0.7555,0.76,0.7623,0.7669,0.7685,0.772,0.7705,0.7722,0.7726,0.7731,0.7736,0.7619,0.7727,0.7726,0.7726,0.7726,0.7726,0,0.7425,0.7438,0.7471,0.7505,0.7533,0.7518,0.7544,0.7569,0.7608,0.7631,0.7661,0.7708,0.7745,0.7759,0.7795,0.7822,0.7817,0.7831,0.783,0.7833,0.7747,0.7733,0.7835,0.7835,0.7835,0.7834,0.7834,0.7834,0.7484,0.7538,0.754,0.7602,0.7614,0.7657,0.7674,0.7695,0.7713,0.7765,0.7796,0.7804,0.7823,0.7861,0.7895,0.7898,0.7913,0.793,0.7931,0.785,0.7839,0.7829,0.7816,0.7933,0.7933,0.8014,0.8015,0.8015]},{"header":{"parameterUnit":"m.s-1","parameterCategory":1,"la1":30.2991,"la2":30.254,"lo1":-89.0895,"lo2":-89.0444,"dy":0.0017,"dx":0.0017,"nx":28,"ny":28,"refTime":"2025-08-15T21:00:00:Z","depth":0,"parameterNumber":3,"parameterNumberName":"V-component_of_WINDS"},"data":[0,0,0,0,0,0,0,0,0,0,0,0,0,0,0,0,0,0,0,0,0,0,0,0,0,0,0,0,0,0,0,0,0,0,0,0,0,0,0,0,0,0,0,0,0,0,0,0,0,0,0,0,0,0,0,0,0,0,0.173,0.1731,0,0.1852,0.1853,0.1854,0.1883,0.1882,0.1881,0.188,0.2004,0.2008,0.2012,0,0,0,0,0,0,0,0,0,0,0,0,0,0.1518,0.1522,0.1729,0.1731,0.1732,0.1851,0.1853,0.1855,0.1883,0.1882,0.1881,0.188,0.2003,0.2008,0.2013,0,0,0,0,0,0,0,0,0,0,0,0,0,0.1622,0.1523,0.1729,0.1761,0.1765,0.1851,0.1853,0.1855,0.1883,0.1882,0.188,0.1879,0.2001,0.2007,0.2013,0.2077,0,0,0.2032,0.2035,0,0,0,0,0,0,0,0,0.1616,0.1629,0.1755,0.1759,0.1763,0.1851,0.1824,0.1929,0.1883,0.1838,0.188,0.1879,0.1954,0.1964,0.199,0.2082,0.2088,0.2033,0.2036,0.2039,0.2041,0,0,0,0,0,0,0,0.1609,0.1624,0.1778,0.1756,0.1762,0.1768,0.1781,0.1844,0.1902,0.1842,0.1844,0.1858,0.1956,0.1984,0.1993,0.2089,0.2032,0.2038,0.2042,0.2044,0.2237,0.2238,0,0,0,0,0,0,0.1596,0.1618,0.1774,0.1781,0.1685,0.1773,0.1788,0.1824,0.1901,0.1912,0.1859,0.1859,0.1974,0.1986,0.1997,0.2074,0.2039,0.2045,0.2048,0.2236,0.2237,0.2239,0,0,0,0,0,0,0.1591,0.161,0.1769,0.1701,0.1721,0.1778,0.1818,0.1827,0.1854,0.1914,0.1924,0.1877,0.1973,0.1989,0.2056,0.2079,0.2047,0.2053,0.2234,0.2236,0.2238,0.223,0,0,0,0,0,0,0.1585,0.1608,0.1633,0.1701,0.1725,0.1826,0.182,0.183,0.1865,0.1866,0.1933,0.1943,0.1973,0.2047,0.2062,0.2087,0.2058,0.2232,0.2235,0.2237,0.2228,0.2232,0.2234,0,0,0,0,0,0.1578,0.1627,0.1634,0.1653,0.1758,0.1828,0.1841,0.1875,0.1867,0.1892,0.193,0.1941,0.2074,0.2053,0.2071,0.2098,0.2231,0.2234,0.2237,0.2227,0.2231,0.2234,0,0,0,0,0,0,0.1561,0.1636,0.1646,0.1718,0.1766,0.1832,0.1865,0.1879,0.193,0.1929,0.1968,0.1983,0.2048,0.208,0.2055,0.2162,0.2152,0.2159,0.2138,0.2142,0.2145,0.2136,0.2063,0,0,0,0,0,0.1565,0.1616,0.1679,0.1737,0.1761,0.1809,0.1841,0.1862,0.1914,0.1934,0.1977,0.2026,0.2079,0.2113,0.2164,0.2233,0.2247,0.226,0.2263,0.2265,0.227,0.2307,0.2313,0.2249,0.2249,0.2249,0,0,0.1575,0.1623,0.1653,0.1735,0.1775,0.1825,0.1826,0.188,0.1918,0.1942,0.2008,0.2041,0.2098,0.2166,0.2198,0.2195,0.2291,0.2269,0.2271,0.2275,0.2311,0.2316,0.2322,0.2252,0.2251,0.2251,0,0,0.1619,0.1661,0.1713,0.1752,0.1812,0.1844,0.1856,0.192,0.1943,0.2009,0.2028,0.2073,0.2163,0.2202,0.2234,0.229,0.2302,0.2306,0.2321,0.2356,0.2361,0.2365,0.2383,0.239,0.2311,0.2311,0.2311,0,0.1624,0.1702,0.1738,0.1791,0.1825,0.1849,0.19,0.1937,0.2011,0.2034,0.2029,0.2141,0.2182,0.2257,0.2271,0.2296,0.231,0.2298,0.2357,0.2362,0.2367,0.2385,0.2392,0.2311,0.2311,0.2311,0.2311,0,0.1704,0.1758,0.1792,0.1862,0.19,0.1952,0.1994,0.2029,0.2047,0.2078,0.2144,0.2193,0.2254,0.2274,0.2292,0.2352,0.2347,0.235,0.2341,0.2372,0.2389,0.2397,0.2311,0.2311,0.2311,0.2311,0,0,0.1742,0.1829,0.1841,0.1872,0.1939,0.1981,0.2033,0.2092,0.212,0.217,0.2213,0.2288,0.2289,0.2325,0.2348,0.2379,0.2417,0.2377,0.2379,0.2381,0.2483,0.248,0.2487,0.2425,0.2427,0.2428,0.2478,0,0.1793,0.1887,0.1919,0.1996,0.2045,0.2068,0.2113,0.2158,0.2188,0.2233,0.2266,0.2317,0.2317,0.2338,0.237,0.2406,0.2438,0.2403,0.2465,0.2466,0.2448,0.2497,0.2494,0.2539,0.2485,0.2486,0.2487,0,0.1865,0.1915,0.1997,0.2055,0.2077,0.2117,0.2173,0.2216,0.2267,0.2286,0.2325,0.2345,0.2399,0.2387,0.246,0.2435,0.2462,0.2484,0.2486,0.2492,0.2478,0.2502,0.2554,0.256,0.2498,0.2497,0.2496,0,0.1881,0.1969,0.2029,0.2055,0.2126,0.2153,0.2183,0.2233,0.2266,0.2314,0.2336,0.239,0.2419,0.246,0.2493,0.2482,0.2563,0.2554,0.2579,0.2578,0.2595,0.2593,0.2649,0.2614,0.2614,0.2614,0.2614,0,0.1934,0.1983,0.2037,0.2074,0.2128,0.2164,0.2217,0.2249,0.2292,0.2334,0.2358,0.2396,0.2439,0.2483,0.2509,0.2564,0.2578,0.2594,0.26,0.2591,0.2589,0.2609,0.2606,0.2616,0.2615,0.2615,0.2615,0,0.1962,0.2,0.2067,0.2127,0.2144,0.2181,0.2232,0.2268,0.2299,0.2351,0.2366,0.2413,0.2466,0.2504,0.2572,0.2589,0.2648,0.2655,0.2631,0.2634,0.2656,0.2653,0.2726,0.2737,0.2695,0.2696,0.2696,0,0.1992,0.203,0.2095,0.2124,0.2155,0.2203,0.2236,0.2272,0.2306,0.2365,0.2393,0.2447,0.2493,0.2575,0.2615,0.2667,0.2674,0.2696,0.2682,0.2671,0.2672,0.2669,0.2672,0.2698,0.2698,0.2699,0.2699,0,0.2042,0.2058,0.2106,0.2159,0.2198,0.2242,0.2286,0.2309,0.2352,0.2388,0.2442,0.2477,0.2546,0.2599,0.2654,0.2684,0.2698,0.2703,0.2711,0.2702,0.2686,0.2693,0.2635,0.2701,0.2701,0.2701,0.2701,0.27,0.2071,0.2105,0.2155,0.2206,0.2242,0.2283,0.2318,0.2353,0.2398,0.2457,0.2475,0.2531,0.2578,0.2654,0.2684,0.2727,0.2726,0.2739,0.2741,0.2744,0.2742,0.2679,0.2738,0.2738,0.2738,0.2738,0.2738,0,0.212,0.2153,0.22,0.226,0.2299,0.2309,0.2358,0.239,0.2439,0.2482,0.2526,0.2586,0.2637,0.268,0.2733,0.2758,0.2766,0.2771,0.2769,0.2775,0.2741,0.2728,0.2764,0.2764,0.2764,0.2764,0.2764,0.2764,0.215,0.2207,0.2229,0.2304,0.2336,0.2391,0.2417,0.2453,0.2488,0.2555,0.2597,0.2625,0.2668,0.2723,0.2769,0.278,0.2798,0.2801,0.2813,0.2781,0.2778,0.2775,0.2762,0.2805,0.2805,0.2843,0.2844,0.2844]}]]